Вернуться в каталог

STARLINK-36131

АктивенСвязьVLEO
NORAD 67032·PAYLOAD·🇺🇸 United States

Запущен Dec 11, 2025 с Cape Canaveral Space Force Station

Loading…

Ближайшие Пролёты (ближайшие 24 часа)

TLE

СвежийSource: CelesTrak SupGP

Эпоха: Sep 15, 2026, 02:50 UTC

1 67032C 25294C   26258.11854167 -.00026549  00000+0 -96133-3 0  2586
2 67032  43.0022  48.0044 0001539 270.2839  72.6360 15.27600813    18

Отслеживайте STARLINK-36131 в реальном времени с AllMySat

Download on the App Store